Zurück zum Katalog

AVUM DEB

ADAPTOR

AktivPO
NORAD 39162·DEBRIS·🇪🇺 EU

Gestartet May 7, 2013 von Guiana Space Centre

Loading…

Nächste Überflüge (nächste 24 Stunden)

TLE

AktuellSource: Space-Track

Epoche: Sep 14, 2026, 09:14 UTC

1 39162U 13021D   26257.38518427  .00001077  00000-0  23647-3 0  9998
2 39162  98.8128 238.4192 0083618 104.8718 256.1759 14.57711604706502

Verfolge AVUM DEB in Echtzeit mit AllMySat

Download on the App Store